Weather History for Scottsbluff, NE

Change the Weather History Date:

Friday, August 29, 2014

  Actual Average Record
Temperature  
Mean Temperature 66 °F 69 °F  
Max Temperature 83 °F 85 °F 104 °F (1898)
Min Temperature 49 °F 53 °F 39 °F (1915)
Degree Days  
Heating Degree Days 0 1  
Month to date heating degree days 5 8  
Since 1 June heating degree days 65 74  
Since 1 July heating degree days 12 14  
Cooling Degree Days 1 5  
Month to date cooling degree days 231 219  
Year to date cooling degree days 635 655  
Since 1 June cooling degree days 608 632  
Growing Degree Days 16 (Base 50)    
Moisture  
Dew Point 54 °F    
Average Humidity 67    
Maximum Humidity 100    
Minimum Humidity 34    
Precipitation  
Precipitation 0.01 in 0.04 in 0.75 in (2002)
Month to date precipitation 1.57 1.23  
Year to date precipitation 11.95 12.23  
Snow  
Snow 0.00 in 0.00 in - ()
Month to date snowfall 0.0 0.0  
Since 1 July snowfall 0.0 0.0  
Snow Depth 0.00 in    
Sea Level Pressure  
Sea Level Pressure 29.94 in    
Wind  
Wind Speed 8 mph (North)    
Max Wind Speed 22 mph    
Max Gust Speed 27 mph    
Visibility 10 miles    
Events      
T = Trace of Precipitation, MM = Missing Value Source: NWS Daily Summary

Daily Weather History Graph

Daily Weather History Graph

Search for Another Location

Airport:

Trip Planner

Search our weather history database for the weather conditions in past years. The results will help you decide how hot, cold, wet, or windy it might be!

Date:

Astronomy

Aug. 29, 2014 Rise Set
Actual Time 6:17 AM MDT 7:32 PM MDT
Civil Twilight 5:48 AM MDT 8:01 PM MDT
Nautical Twilight 5:13 AM MDT 8:35 PM MDT
Astronomical Twilight 4:37 AM MDT 9:12 PM MDT
Moon 10:13 AM MDT (8/29) 9:27 PM MDT (8/29)
Length of Visible Light 14h 13m
Length of Day
13h 15m
Waxing Crescent, 15% of the Moon is Illuminated
Aug 29
Waxing Crescent
Sep 2
First Quarter
Sep 8
Full
Sep 15
Last Quarter
Sep 24
New

Hourly Weather History & Observations

Time (MDT) Temp. Heat Index Dew Point Humidity Pressure Visibility Wind Dir Wind Speed Gust Speed Precip Events Conditions
12:53 AM 52.0 °F - 51.1 °F 97% 29.94 in 10.0 mi North 3.5 mph - N/A   Clear
1:53 AM 51.1 °F - 50.0 °F 96% 29.92 in 10.0 mi NW 4.6 mph - N/A   Clear
2:53 AM 50.0 °F - 48.9 °F 96% 29.90 in 10.0 mi North 4.6 mph - N/A   Clear
3:53 AM 50.0 °F - 48.9 °F 96% 29.91 in 8.0 mi NW 4.6 mph - N/A   Clear
4:53 AM 48.9 °F - 48.0 °F 97% 29.91 in 9.0 mi NW 8.1 mph - N/A   Clear
5:53 AM 50.0 °F - 48.9 °F 96% 29.91 in 9.0 mi NW 6.9 mph - N/A   Clear
6:53 AM 52.0 °F - 51.1 °F 97% 29.92 in 7.0 mi NW 9.2 mph - N/A   Partly Cloudy
7:53 AM 55.9 °F - 53.1 °F 90% 29.93 in 10.0 mi NW 10.4 mph - N/A   Clear
8:53 AM 62.6 °F - 55.4 °F 77% 30.02 in 10.0 mi West 6.9 mph - N/A   Partly Cloudy
9:53 AM 69.1 °F - 57.0 °F 65% 29.93 in 10.0 mi WNW 8.1 mph - N/A   Clear
10:53 AM 73.9 °F - 57.9 °F 57% 29.93 in 10.0 mi WNW 20.7 mph - N/A   Scattered Clouds
11:53 AM 79.0 °F - 54.0 °F 42% 29.93 in 10.0 mi North 19.6 mph - 0.00 in   Scattered Clouds
12:53 PM 75.9 °F - 57.0 °F 52% 29.94 in 10.0 mi West 5.8 mph - 0.01 in   Scattered Clouds
1:53 PM 80.6 °F - 51.8 °F 37% 30.03 in 10.0 mi Variable 6.9 mph - N/A   Clear
2:53 PM 79.0 °F - 52.0 °F 39% 29.91 in 10.0 mi Variable 3.5 mph - N/A   Mostly Cloudy
3:53 PM 82.0 °F - 51.1 °F 34% 29.90 in 10.0 mi NNE 8.1 mph - N/A   Scattered Clouds
4:53 PM 82.0 °F 81.2 °F 53.1 °F 37% 29.90 in 10.0 mi East 8.1 mph - N/A   Mostly Cloudy
5:53 PM 78.1 °F - 57.9 °F 50% 29.91 in 10.0 mi East 6.9 mph - N/A   Scattered Clouds
6:53 PM 75.0 °F - 59.0 °F 57% 29.91 in 10.0 mi East 5.8 mph - N/A   Scattered Clouds
7:53 PM 66.9 °F - 59.0 °F 76% 29.94 in 10.0 mi East 8.1 mph - N/A   Clear
8:53 PM 62.6 °F - 57.2 °F 82% 30.06 in 10.0 mi ESE 5.8 mph - N/A   Clear
9:53 PM 61.0 °F - 57.0 °F 87% 29.98 in 10.0 mi Calm Calm - N/A   Partly Cloudy
10:53 PM 63.0 °F - 57.0 °F 81% 29.97 in 10.0 mi ESE 5.8 mph - N/A   Mostly Cloudy
11:53 PM 59.0 °F - 55.9 °F 90% 29.96 in 10.0 mi ESE 6.9 mph - N/A   Clear